Location: Bacharowice
(49.9333°N, 19.5833°E)
Time: 13:01:35
(UTC+00:00)

BREEZE-M DEB (TANK) - Pass Details

Date: 11 May 2021
Orbit: 276 x 16788 km, 49.5° (Epoch: 22 June)

Event Time Altitude Azimuth Distance (km) Brightness Sun altitude
Rises 20:21:34 0° 279° (W) 2,077 5.9 -15.6°
Reaches altitude 10° 20:23:22 10° 274° (W) 1,111 4.4 -15.7°
Enters shadow 20:25:10 53° 213° (SSW) 368 1.2 -15.9°
